Regional Weather Roundup
Issued by NWS Charleston, SC

Current Version | Previous Version | Text Only | Print | Product List | Glossary Off
Versions: 1 2 3 4 5 6 7 8 9 10 11 12 13 14 15 16 17 18 19 20 21 22 23 24 25 26 27 28 29 30 31 32 33 34 35 36 37 38 39 40 41 42 43 44 45 46 47 48 49 50

000
ASUS42 KCHS 171910
RWRCHS
REGIONAL WEATHER ROUNDUP
NATIONAL WEATHER SERVICE CHARLESTON SC
300 PM EDT WED SEP 17 2014

NOTE: "FAIR" INDICATES FEW OR NO CLOUDS BELOW 12,000 FEET WITH NO
SIGNIFICANT WEATHER AND/OR OBSTRUCTIONS TO VISIBILITY.

NOT ALL STATIONS ARE QUALITY CONTROLLED BY THE NATIONAL
WEATHER SERVICE. USE DATA WITH CAUTION...ESPECIALLY
DEWPOINT OBSERVATIONS.

SCZ027-030-031-034>040-042>050-172000-
...SOUTH CAROLINA...

CITY           SKY/WX    TMP DP  RH WIND       PRES   REMARKS
N CHARLESTON   PTSUNNY   85  69  58 SE8       29.88F
WATERFRONT PRK   N/A     84 N/A N/A E9          N/A
FORT JOHNSON   NOT AVBL
MOUNT PLEASANT DRIZZLE   82  70  65 SE7       29.88F
JOHNS ISLAND   NOT AVBL
PINOPOLIS        N/A     84  70  61 N5        29.81F
MONCKS CORNER    N/A     84  73  70 CALM      29.88F HX  91
SUMMERVILLE    FAIR      84  72  65 CALM      29.88F
BEAUFORT MCAS  TSTM      74  72  93 NE10G18   29.88F FOG
BEAUFORT ARPT  MOCLDY    82  73  74 SE5       29.87F
HILTON HEAD IS MOSUNNY   82  70  65 E6        29.89F
GEORGETOWN     NOT AVBL
WALTERBORO     PTCLDY    86  64  48 CALM      29.88F
ORANGEBURG     SUNNY     82  69  64 SE3       29.89F
BARNWELL       MOCLDY    84  70  61 NE3       29.89F
AIKEN          FAIR      81  72  74 CALM      29.95F
MANNING        MOCLDY    82  72  69 N3        29.89F
KINGSTREE      NOT AVBL
COLUMBIA       CLOUDY    80  67  64 NE7       29.90F
SUMTER         CLOUDY    76  64  65 VRB5      29.91F
FLORENCE       CLOUDY    79  66  64 W5        29.90F
MYRTLE BEACH   PTSUNNY   82  66  57 S9        29.88F
N MYRTLE BEACH MOSUNNY   82  66  58 SE8       29.87F

$$

GAZ063-065-086>088-099>101-113>116-118-119-134-136>141-150-172000-
...GEORGIA...

CITY           SKY/WX    TMP DP  RH WIND       PRES   REMARKS
SAVANNAH ARPT  PTSUNNY   87  72  60 SE10      29.87F HX  93
HUNTER AAF     MOSUNNY   83  73  72 SE7       29.86F
FORT STEWART   MOSUNNY   86  71  60 E5        29.86F HX  91
STATESBORO     NOT AVBL
SYLVANIA       PTCLDY    85  74  70 S3        29.89S HX  92
CLAXTON        CLOUDY    90  73  58 CALM      29.88S HX  98
THOMSON        MOSUNNY   86  74  68 NW7       29.94F HX  93
AUGUSTA-BUSH   PTSUNNY   84  68  58 NE5       29.87F
AUGUSTA-DANIEL MOSUNNY   84  68  58 CALM      29.89F
SWAINSBORO     FAIR      90  72  55 W5        29.90S HX  96
VIDALIA        PTSUNNY   90  70  51 NW6       29.89S HX  95
ALMA           MOSUNNY   89  67  47 N5        29.89F HX  92
WAYCROSS       SUNNY     91  72  53 N5        29.88S HX  98
JESUP          MOCLDY    91  72  52 CALM      29.87F HX  98
BRUNSWICK      PTSUNNY   86  70  58 E7        29.88F HX  90
SAINT SIMONS   SUNNY     85  71  63 E8        29.88F HX  90

$$

SCZ027-028-034-036>038-045-046-048>050-GAZ119-141-172000-
...LAKE AND SUPPLEMENTAL COASTAL OBSERVATIONS...

STATION/POSITION TIME  TEMP    WIND        PRES    WAVE   SWELL
                       AIR SEA DIR/SP/G            HT/PER HT/PER/DIR
                 (UTC) (F)     (DEG/KT/KT) (MB)    (FT/S) (FT/S/D)
UPR LAKE MARION  NOT AVBL
WINYAH BAY       1800   78     100/  5     1012.0F
LAKE MURRAY      1800   74      30/  3/  5 1012.9S
ACE BASIN NERRS  1800   83     170/  1     1013.0S
FORT PULASKI     1900   82     110/  5/  7 1012.2F
SAPELO ISLAND    1800   86      90/  7     1013.0F

$$

ANZ835-935-AMZ111-154-330-350-352-354-374-450-454-472-172000-
...C-MAN AND BUOY OBSERVATIONS...

STATION/POSITION TIME  TEMP    WIND        PRES    WAVE   SWELL
                       AIR SEA DIR/SP/G            HT/PER HT/PER/DIR
                 (UTC) (F)     (DEG/KT/KT) (MB)    (FT/S) (FT/S/D)
FOLLY BEACH CMAN 1800   80      80/ 10/ 12 1013.1F
BUOY 41004       1900   79 83   50/  6/  8 1011.4F   4/15   3/15
BUOY 41008       1900   81 85  110/  4/  8 1011.7F   2/12   2/100/12
5E ST. MARYS GA  1900      85                N/A     3/14   2/110/14
FRYING PAN BUOY  NOT AVBL
BUOY 41025       1900   78      50/ 12/ 16 1011.9F   6/14   5/ 90/14
CAPE LOOKOUT NC  1800   72     100/ 14/ 16 1012.7F
BUOY 41002       1840   76 82  220/  8/ 10 1010.4F   7/14   7/ 90/14
BUOY 41010       1900   76 85  300/ 14/ 17 1011.3F   5/14   3/100/14
BUOY 41012       NOT AVBL
ST AUGUSTINE FL  1900   79      40/  7/  8 1012.7F
CAPERS NEARSHORE NOT AVBL
FRIPP NEARSHORE  NOT AVBL


$$


USA.gov is the U.S. government's official web portal to all federal, state and local government web resources and services.